• Join FlightAware (Why Join?)
  • Login
  • US Flag 
11:58AM EDT


 

Airport Tracker/Info


-or-


 

Live Flight TrackerFlight Track Log ✈ CTL13 ✈ 03-Jul-2013 ✈ KMDW - KGRR

Flight Track Log - Related Links

Times and Time Zones

All times are in EDT time to prevent confusion due to time zone crossing. See the CTL13 flight status page for this flight to view local times or setup timezone preferences in your user account.

Time Position Orientation Groundspeed Altitude Reporting Facility
EDT Latitude Longitude Course Direction KTS MPH feet Rate Location/Type
10:47PM 41.8000 -87.7500 114° Southeast 148 170 1,500  Level Chicago TRACON
10:48PM 41.7833 -87.7000 114° Southeast 146 168 2,300 840 Climbing Chicago TRACON
10:49PM 41.7703 -87.6633 116° Southeast 143 165 3,100 1,020 Climbing Chicago Center
10:50PM 41.7472 -87.6225 127° Southeast 142 163 4,300 960 Climbing Chicago Center
10:51PM 41.7503 -87.5692 86° East 149 171 5,100 780 Climbing Chicago Center
10:52PM 41.7531 -87.5178 86° East 143 165 5,900 420 Climbing Chicago Center
10:53PM 41.7547 -87.4575 88° East 159 183 6,000  Climbing Chicago Center
10:54PM 41.7567 -87.3883 88° East 182 209 6,000  Level Chicago Center
10:55PM 41.7600 -87.3197 86° East 186 214 6,000  Level Chicago Center
10:56PM 41.7636 -87.2356 87° East 190 219 6,000  Level Chicago Center
10:57PM 41.7661 -87.1661 87° East 188 216 6,000  Level Chicago Center
10:58PM 41.7683 -87.0958 88° East 190 219 6,000  Level Chicago Center
10:59PM 41.7747 -87.0278 83° East 186 214 6,000 240 Level Chicago Center
11:00PM 41.8114 -86.9786 45° Northeast 184 212 6,600 480 Climbing Chicago Center
11:01PM 41.8469 -86.9322 44° Northeast 181 208 7,000 240 Climbing Chicago Center
11:02PM 41.8833 -86.8825 45° Northeast 187 215 7,100  Climbing Chicago Center
11:03PM 41.9189 -86.8342 45° Northeast 184 212 7,100  Level Chicago Center
11:04PM 41.9611 -86.7783 45° Northeast 179 206 7,100  Level Chicago Center
11:05PM 41.9958 -86.7331 44° Northeast 177 204 7,100  Level Chicago Center
11:06PM 42.0308 -86.6872 44° Northeast 177 204 7,100  Level Chicago Center
11:07PM 42.0644 -86.6378 48° Northeast 179 206 7,100  Level Chicago Center
11:08PM 42.1014 -86.5922 42° Northeast 180 207 7,100  Level Chicago Center
11:09PM 42.1356 -86.5444 46° Northeast 178 205 7,100  Level Chicago Center
11:10PM 42.1719 -86.4975 44° Northeast 180 207 7,100  Level Chicago Center
11:11PM 42.2067 -86.4486 46° Northeast 180 207 7,100  Level Chicago Center
11:12PM 42.2406 -86.3989 47° Northeast 181 208 7,100  Level Chicago Center
11:13PM 42.2772 -86.3519 43° Northeast 181 208 7,100  Level Chicago Center
11:14PM 42.3181 -86.2986 44° Northeast 181 208 7,100  Level Chicago Center
11:15PM 42.3531 -86.2506 45° Northeast 181 208 7,100  Level Chicago Center
11:16PM 42.3889 -86.2019 45° Northeast 181 208 7,100  Level Chicago Center
11:17PM 42.4236 -86.1536 46° Northeast 180 207 7,100  Level Chicago Center
11:18PM 42.4594 -86.1044 45° Northeast 182 209 7,100  Level Chicago Center
11:19PM 42.4958 -86.0578 43° Northeast 182 209 7,100  Level Chicago Center
11:20PM 42.5389 -85.9989 45° Northeast 183 211 7,100 -60 Level Chicago Center
11:21PM 42.5736 -85.9492 47° Northeast 183 211 7,000  Descending Chicago Center
11:22PM 42.6094 -85.9000 45° Northeast 184 212 7,100 -120 Climbing Chicago Center
11:23PM 42.6469 -85.8519 43° Northeast 185 213 6,800 -540 Descending Chicago Center
11:24PM 42.6861 -85.7961 46° Northeast 197 227 6,000 -840 Descending Chicago Center
11:25PM 42.7250 -85.7408 46° Northeast 203 234 5,200 -840 Descending Chicago Center
11:26PM 42.7619 -85.6872 47° Northeast 199 229 4,300 -900 Descending Chicago Center
11:27PM 42.7989 -85.6381 44° Northeast 191 220 3,400 -1,140 Descending Chicago Center
11:28PM 42.8469 -85.5903 36° Northeast 183 211 2,100 -1,260 Descending Chicago Center
11:29PM 42.8756 -85.5519 44° Northeast 174 200 900 -1,200 Descending Chicago Center
11:31PM 42.8667 -85.5167 56° Northeast  Level FlightAware Approximate
11:38PM 42.8808 -85.5228 56° Northeast  Level Estimated
11:39PM 42.8808 -85.5228 56° Northeast  Level Estimated